TimeEDT,TemperatureF,Dew PointF,Humidity,Sea Level PressureIn,VisibilityMPH,Wind Direction,Wind SpeedMPH,Gust SpeedMPH,PrecipitationIn,Events,Conditions,WindDirDegrees,DateUTC
12:53 AM,61.0,55.9,83,30.06,10.0,Calm,Calm,-,N/A,,Clear,0,2012-11-01 04:53:00
2:53 AM,61.0,55.9,83,30.04,10.0,Calm,Calm,-,N/A,,Clear,0,2012-11-01 06:53:00
3:53 AM,60.1,57.0,90,30.04,10.0,Calm,Calm,-,N/A,,Clear,0,2012-11-01 07:53:00
4:53 AM,60.1,57.0,90,30.04,10.0,Calm,Calm,-,N/A,,Clear,0,2012-11-01 08:53:00
7:53 AM,61.0,57.9,90,30.04,10.0,Calm,Calm,-,N/A,,Clear,0,2012-11-01 11:53:00
8:53 AM,66.9,63.0,87,30.06,10.0,Calm,Calm,-,N/A,,Clear,0,2012-11-01 12:53:00
9:53 AM,73.9,60.1,62,30.06,10.0,West,6.9,-,N/A,,Clear,280,2012-11-01 13:53:00
10:53 AM,77.0,59.0,54,30.07,10.0,WNW,11.5,-,N/A,,Clear,290,2012-11-01 14:53:00
11:53 AM,79.0,59.0,50,30.06,10.0,West,12.7,20.7,N/A,,Overcast,270,2012-11-01 15:53:00
12:53 PM,79.0,60.1,52,30.05,10.0,West,15.0,-,N/A,,Overcast,280,2012-11-01 16:53:00
1:53 PM,75.9,62.1,62,30.03,10.0,WNW,9.2,-,N/A,,Overcast,300,2012-11-01 17:53:00
2:53 PM,77.0,61.0,58,30.00,10.0,WNW,10.4,-,N/A,,Overcast,290,2012-11-01 18:53:00
3:53 PM,75.9,61.0,60,30.00,10.0,West,10.4,-,N/A,,Overcast,280,2012-11-01 19:53:00
4:53 PM,75.0,62.1,64,29.99,10.0,WNW,8.1,-,N/A,,Overcast,290,2012-11-01 20:53:00
5:53 PM,75.0,62.1,64,29.99,10.0,WNW,5.8,-,N/A,,Partly Cloudy,290,2012-11-01 21:53:00
6:53 PM,72.0,62.1,71,29.99,10.0,WSW,5.8,-,N/A,,Clear,240,2012-11-01 22:53:00
7:53 PM,71.1,63.0,75,30.01,10.0,West,3.5,-,N/A,,Clear,280,2012-11-01 23:53:00
8:53 PM,69.1,63.0,81,30.02,10.0,Calm,Calm,-,N/A,,Partly Cloudy,0,2012-11-02 00:53:00
9:53 PM,68.0,63.0,84,30.03,10.0,Calm,Calm,-,N/A,,Scattered Clouds,0,2012-11-02 01:53:00
10:53 PM,68.0,64.0,87,30.04,10.0,Calm,Calm,-,N/A,,Scattered Clouds,0,2012-11-02 02:53:00
11:53 PM,66.9,64.0,90,30.04,10.0,Calm,Calm,-,N/A,,Partly Cloudy,0,2012-11-02 03:53:00